Time,TemperatureF,DewpointF,PressureIn,WindDirection,WindDirectionDegrees,WindSpeedMPH,WindSpeedGustMPH,Humidity,HourlyPrecipIn,Conditions,Clouds,dailyrainin,SoftwareType,DateUTC
2013-04-16 00:00:00,61.9,58.0,30.11,SE,136,0.0,0.0,87,0.00,SCT,,0.00,WeatherDisplay:10.37,2013-04-16 04:00:00,
2013-04-16 00:03:00,61.9,58.0,30.11,SE,136,0.0,0.0,87,0.00,SCT,,0.00,WeatherDisplay:10.37,2013-04-16 04:03:00,
2013-04-16 00:08:00,61.9,58.0,30.11,SE,136,0.0,0.0,87,0.00,SCT,,0.00,WeatherDisplay:10.37,2013-04-16 04:08:00,
2013-04-16 00:13:00,62.0,58.4,30.11,SE,136,0.0,0.0,88,0.00,SCT,,0.00,WeatherDisplay:10.37,2013-04-16 04:13:00,
2013-04-16 00:18:00,62.0,58.4,30.11,SE,136,0.0,0.0,88,0.00,SCT,,0.00,WeatherDisplay:10.37,2013-04-16 04:18:00,
2013-04-16 00:23:00,62.1,58.2,30.11,SE,136,0.0,0.0,87,0.00,SCT,,0.00,WeatherDisplay:10.37,2013-04-16 04:23:00,
2013-04-16 00:28:00,62.2,58.3,30.11,SE,136,0.0,0.0,87,0.00,SCT,,0.00,WeatherDisplay:10.37,2013-04-16 04:28:00,
2013-04-16 00:33:00,62.2,58.3,30.11,SE,136,0.0,0.0,87,0.00,SCT,,0.00,WeatherDisplay:10.37,2013-04-16 04:33:00,
2013-04-16 00:38:00,62.2,58.3,30.11,SE,136,0.0,0.0,87,0.00,SCT,,0.00,WeatherDisplay:10.37,2013-04-16 04:38:00,
2013-04-16 00:43:00,62.3,58.4,30.12,SE,136,0.0,0.0,87,0.00,SCT,,0.00,WeatherDisplay:10.37,2013-04-16 04:43:00,
2013-04-16 00:48:00,62.2,58.3,30.12,SE,136,0.0,0.0,87,0.00,SCT,,0.00,WeatherDisplay:10.37,2013-04-16 04:48:00,
2013-04-16 00:53:00,62.2,58.3,30.12,SE,136,0.0,0.0,87,0.00,SCT,,0.00,WeatherDisplay:10.37,2013-04-16 04:53:00,
2013-04-16 00:58:00,62.1,58.5,30.11,SE,136,0.0,0.0,88,0.00,SCT,,0.00,WeatherDisplay:10.37,2013-04-16 04:58:00,
2013-04-16 01:03:00,62.1,58.8,30.11,SE,136,0.0,0.0,89,0.00,CLR,,0.00,WeatherDisplay:10.37,2013-04-16 05:03:00,
2013-04-16 01:08:00,62.1,58.5,30.11,SE,136,0.0,0.0,88,0.00,CLR,,0.00,WeatherDisplay:10.37,2013-04-16 05:08:00,
2013-04-16 01:13:00,62.1,58.8,30.11,SE,136,0.0,0.0,89,0.00,CLR,,0.00,WeatherDisplay:10.37,2013-04-16 05:13:00,
2013-04-16 01:18:00,62.1,58.5,30.11,SE,136,0.0,0.0,88,0.00,CLR,,0.00,WeatherDisplay:10.37,2013-04-16 05:18:00,
2013-04-16 01:23:00,62.1,58.5,30.11,SE,136,0.0,0.0,88,0.00,CLR,,0.00,WeatherDisplay:10.37,2013-04-16 05:23:00,
2013-04-16 01:28:00,62.1,58.5,30.11,SE,136,0.0,0.0,88,0.00,CLR,,0.00,WeatherDisplay:10.37,2013-04-16 05:28:00,
2013-04-16 01:33:00,62.0,58.7,30.11,SE,136,0.0,0.0,89,0.00,CLR,,0.00,WeatherDisplay:10.37,2013-04-16 05:33:00,
2013-04-16 01:38:00,62.0,58.7,30.11,SE,136,0.0,0.0,89,0.00,CLR,,0.00,WeatherDisplay:10.37,2013-04-16 05:38:00,
2013-04-16 01:43:00,62.0,58.4,30.11,SE,136,0.0,0.0,88,0.00,CLR,,0.00,WeatherDisplay:10.37,2013-04-16 05:43:00,
2013-04-16 01:48:00,62.0,58.4,30.11,SE,136,0.0,0.0,88,0.00,CLR,,0.00,WeatherDisplay:10.37,2013-04-16 05:48:00,
2013-04-16 01:53:00,62.0,58.4,30.11,SE,136,0.0,0.0,88,0.00,CLR,,0.00,WeatherDisplay:10.37,2013-04-16 05:53:00,
2013-04-16 01:58:00,62.0,58.4,30.11,SE,136,0.0,0.0,88,0.00,CLR,,0.00,WeatherDisplay:10.37,2013-04-16 05:58:00,
2013-04-16 02:03:00,61.9,58.3,30.11,SE,136,0.0,0.0,88,0.00,CLR,,0.00,WeatherDisplay:10.37,2013-04-16 06:03:00,
2013-04-16 02:08:00,61.8,58.2,30.12,SE,136,0.0,0.0,88,0.00,CLR,,0.00,WeatherDisplay:10.37,2013-04-16 06:08:00,
2013-04-16 02:13:00,61.7,58.1,30.12,SE,136,0.0,0.0,88,0.00,CLR,,0.00,WeatherDisplay:10.37,2013-04-16 06:13:00,
2013-04-16 02:18:00,61.6,58.0,30.12,SE,136,0.0,0.0,88,0.00,CLR,,0.00,WeatherDisplay:10.37,2013-04-16 06:18:00,
2013-04-16 02:23:00,61.6,58.0,30.12,SE,136,0.0,0.0,88,0.00,CLR,,0.00,WeatherDisplay:10.37,2013-04-16 06:23:00,
2013-04-16 02:28:00,61.5,57.9,30.12,SE,136,0.0,0.0,88,0.00,CLR,,0.00,WeatherDisplay:10.37,2013-04-16 06:28:00,
2013-04-16 02:33:00,61.4,57.8,30.12,SE,136,0.0,0.0,88,0.00,CLR,,0.00,WeatherDisplay:10.37,2013-04-16 06:33:00,
2013-04-16 02:38:00,61.3,57.7,30.12,SE,136,0.0,0.0,88,0.00,CLR,,0.00,WeatherDisplay:10.37,2013-04-16 06:38:00,
2013-04-16 02:43:00,61.3,57.7,30.12,SE,136,0.0,0.0,88,0.00,CLR,,0.00,WeatherDisplay:10.37,2013-04-16 06:43:00,
2013-04-16 02:48:00,61.2,57.9,30.12,SE,136,0.0,0.0,89,0.00,CLR,,0.00,WeatherDisplay:10.37,2013-04-16 06:48:00,
2013-04-16 02:53:00,61.1,57.8,30.12,SE,136,0.0,0.0,89,0.00,CLR,,0.00,WeatherDisplay:10.37,2013-04-16 06:53:00,
2013-04-16 02:58:00,61.1,57.8,30.12,SE,136,0.0,0.0,89,0.00,CLR,,0.00,WeatherDisplay:10.37,2013-04-16 06:58:00,
2013-04-16 03:03:00,61.1,57.8,30.12,SE,136,0.0,0.0,89,0.00,CLR,,0.00,WeatherDisplay:10.37,2013-04-16 07:03:00,
2013-04-16 03:08:00,61.1,57.8,30.12,SE,136,0.0,0.0,89,0.00,CLR,,0.00,WeatherDisplay:10.37,2013-04-16 07:08:00,
2013-04-16 03:13:00,61.2,57.9,30.13,SE,136,0.0,0.0,89,0.00,OVC,,0.00,WeatherDisplay:10.37,2013-04-16 07:13:00,
2013-04-16 03:18:00,61.1,57.8,30.12,SE,136,0.0,0.0,89,0.00,OVC,,0.00,WeatherDisplay:10.37,2013-04-16 07:18:00,
2013-04-16 03:23:00,61.1,57.8,30.12,SE,136,0.0,0.0,89,0.00,OVC,,0.00,WeatherDisplay:10.37,2013-04-16 07:23:00,
2013-04-16 03:28:00,61.1,57.8,30.13,SE,136,0.0,0.0,89,0.00,OVC,,0.00,WeatherDisplay:10.37,2013-04-16 07:28:00,
2013-04-16 03:33:00,61.1,57.8,30.12,SE,136,0.0,0.0,89,0.00,OVC,,0.00,WeatherDisplay:10.37,2013-04-16 07:33:00,
2013-04-16 03:38:00,61.2,57.9,30.12,SE,136,0.0,0.0,89,0.00,OVC,,0.00,WeatherDisplay:10.37,2013-04-16 07:38:00,
2013-04-16 03:43:00,61.2,57.9,30.12,SE,136,0.0,0.0,89,0.00,OVC,,0.00,WeatherDisplay:10.37,2013-04-16 07:43:00,
2013-04-16 03:48:00,61.1,57.8,30.12,SE,136,0.0,0.0,89,0.00,OVC,,0.00,WeatherDisplay:10.37,2013-04-16 07:48:00,
2013-04-16 03:53:00,61.1,57.8,30.12,SE,125,0.0,0.0,89,0.00,OVC,,0.00,WeatherDisplay:10.37,2013-04-16 07:53:00,
2013-04-16 03:58:00,61.1,57.8,30.12,SE,138,3.5,3.5,89,0.00,OVC,,0.00,WeatherDisplay:10.37,2013-04-16 07:58:00,
2013-04-16 04:03:00,61.1,58.1,30.12,SE,139,0.0,0.0,90,0.00,OVC,,0.00,WeatherDisplay:10.37,2013-04-16 08:03:00,
2013-04-16 04:08:00,61.1,57.8,30.12,SE,142,1.2,1.2,89,0.00,OVC,,0.00,WeatherDisplay:10.37,2013-04-16 08:08:00,
2013-04-16 04:13:00,61.0,57.7,30.12,SE,142,1.2,1.2,89,0.00,OVC,,0.00,WeatherDisplay:10.37,2013-04-16 08:13:00,
2013-04-16 04:18:00,60.9,57.6,30.12,SE,128,1.2,1.2,89,0.00,OVC,,0.00,WeatherDisplay:10.37,2013-04-16 08:18:00,
2013-04-16 04:23:00,60.9,57.9,30.12,SE,128,0.0,0.0,90,0.00,OVC,,0.00,WeatherDisplay:10.37,2013-04-16 08:23:00,
2013-04-16 04:28:00,60.7,57.7,30.12,SE,128,0.0,0.0,90,0.00,OVC,,0.00,WeatherDisplay:10.37,2013-04-16 08:28:00,
2013-04-16 04:33:00,60.7,57.7,30.12,ESE,121,0.0,0.0,90,0.00,OVC,,0.00,WeatherDisplay:10.37,2013-04-16 08:33:00,
2013-04-16 04:38:00,60.6,57.7,30.12,ESE,121,0.0,0.0,90,0.00,OVC,,0.00,WeatherDisplay:10.37,2013-04-16 08:38:00,
2013-04-16 04:43:00,60.6,57.7,30.12,SE,132,0.0,0.0,90,0.00,OVC,,0.00,WeatherDisplay:10.37,2013-04-16 08:43:00,
2013-04-16 04:48:00,60.6,57.7,30.12,SSE,159,0.0,0.0,90,0.00,OVC,,0.00,WeatherDisplay:10.37,2013-04-16 08:48:00,
2013-04-16 04:53:00,60.7,58.1,30.12,SE,136,0.0,0.0,91,0.00,OVC,,0.00,WeatherDisplay:10.37,2013-04-16 08:53:00,
2013-04-16 04:58:00,60.7,58.1,30.12,SSE,147,0.0,0.0,91,0.00,OVC,,0.00,WeatherDisplay:10.37,2013-04-16 08:58:00,
2013-04-16 05:03:00,60.8,58.2,30.12,ENE,63,0.0,0.0,91,0.00,CLR,,0.00,WeatherDisplay:10.37,2013-04-16 09:03:00,
2013-04-16 05:08:00,60.9,58.3,30.12,SE,140,0.0,0.0,91,0.00,CLR,,0.00,WeatherDisplay:10.37,2013-04-16 09:08:00,
2013-04-16 05:13:00,61.1,58.8,30.13,East,89,0.0,0.0,92,0.00,CLR,,0.00,WeatherDisplay:10.37,2013-04-16 09:13:00,
2013-04-16 05:18:00,61.1,58.8,30.13,ESE,113,1.2,1.2,92,0.00,CLR,,0.00,WeatherDisplay:10.37,2013-04-16 09:18:00,
2013-04-16 05:23:00,61.2,58.9,30.13,SE,133,1.2,1.2,92,0.00,CLR,,0.00,WeatherDisplay:10.37,2013-04-16 09:23:00,
2013-04-16 05:28:00,61.2,58.9,30.13,ESE,121,0.0,0.0,92,0.00,CLR,,0.00,WeatherDisplay:10.37,2013-04-16 09:28:00,
2013-04-16 05:33:00,61.2,58.9,30.13,SE,146,1.2,1.2,92,0.00,CLR,,0.00,WeatherDisplay:10.37,2013-04-16 09:33:00,
2013-04-16 05:38:00,61.3,59.0,30.13,SSE,153,1.2,1.2,92,0.00,CLR,,0.00,WeatherDisplay:10.37,2013-04-16 09:38:00,
2013-04-16 05:43:00,61.3,59.3,30.13,ESE,114,0.0,0.0,93,0.00,CLR,,0.00,WeatherDisplay:10.37,2013-04-16 09:43:00,
2013-04-16 05:48:00,61.2,59.2,30.13,SE,134,0.0,0.0,93,0.00,CLR,,0.00,WeatherDisplay:10.37,2013-04-16 09:48:00,
2013-04-16 05:53:00,61.3,59.3,30.13,East,90,2.3,2.3,93,0.00,FEW,,0.00,WeatherDisplay:10.37,2013-04-16 09:53:00,
2013-04-16 05:58:00,61.2,59.2,30.13,East,90,0.0,0.0,93,0.00,FEW,,0.00,WeatherDisplay:10.37,2013-04-16 09:58:00,
2013-04-16 06:03:00,61.2,59.2,30.13,ESE,113,1.2,1.2,93,0.00,BKN,,0.00,WeatherDisplay:10.37,2013-04-16 10:03:00,
2013-04-16 06:08:00,61.2,59.2,30.13,SE,140,2.3,2.3,93,0.00,BKN,,0.00,WeatherDisplay:10.37,2013-04-16 10:08:00,
2013-04-16 06:13:00,61.2,59.2,30.14,ESE,123,0.0,0.0,93,0.00,OVC,,0.00,WeatherDisplay:10.37,2013-04-16 10:13:00,
2013-04-16 06:18:00,61.2,59.2,30.14,SE,135,2.3,2.3,93,0.00,OVC,,0.00,WeatherDisplay:10.37,2013-04-16 10:18:00,
2013-04-16 06:23:00,61.2,59.2,30.15,SSE,148,1.2,1.2,93,0.00,OVC,,0.00,WeatherDisplay:10.37,2013-04-16 10:23:00,
2013-04-16 06:28:00,61.2,59.2,30.15,SE,142,2.3,2.3,93,0.00,OVC,,0.00,WeatherDisplay:10.37,2013-04-16 10:28:00,
2013-04-16 06:33:00,61.2,59.2,30.15,SE,142,0.0,0.0,93,0.00,OVC,,0.00,WeatherDisplay:10.37,2013-04-16 10:33:00,
2013-04-16 06:38:00,61.2,59.5,30.15,SE,142,0.0,0.0,94,0.00,OVC,,0.00,WeatherDisplay:10.37,2013-04-16 10:38:00,
2013-04-16 06:43:00,61.2,59.5,30.16,SE,142,0.0,0.0,94,0.00,OVC,,0.00,WeatherDisplay:10.37,2013-04-16 10:43:00,
2013-04-16 06:48:00,61.2,59.5,30.16,SE,142,0.0,0.0,94,0.00,OVC,,0.00,WeatherDisplay:10.37,2013-04-16 10:48:00,
2013-04-16 06:53:00,61.2,59.5,30.16,SE,142,0.0,0.0,94,0.00,OVC,,0.00,WeatherDisplay:10.37,2013-04-16 10:53:00,
2013-04-16 06:58:00,61.2,59.5,30.16,SE,142,0.0,0.0,94,0.00,OVC,,0.00,WeatherDisplay:10.37,2013-04-16 10:58:00,
2013-04-16 07:03:00,61.2,59.5,30.16,SE,142,0.0,0.0,94,0.00,OVC,,0.00,WeatherDisplay:10.37,2013-04-16 11:03:00,
2013-04-16 07:08:00,61.2,59.5,30.16,SE,132,0.0,0.0,94,0.00,OVC,,0.00,WeatherDisplay:10.37,2013-04-16 11:08:00,
2013-04-16 07:13:00,61.2,59.5,30.16,SE,131,0.0,0.0,94,0.00,OVC,,0.00,WeatherDisplay:10.37,2013-04-16 11:13:00,
2013-04-16 07:18:00,61.2,59.5,30.16,SE,131,1.2,1.2,94,0.00,OVC,,0.00,WeatherDisplay:10.37,2013-04-16 11:18:00,
2013-04-16 07:23:00,61.3,59.6,30.16,SE,129,0.0,0.0,94,0.00,OVC,,0.00,WeatherDisplay:10.37,2013-04-16 11:23:00,
2013-04-16 07:28:00,61.3,59.6,30.16,ESE,112,0.0,0.0,94,0.00,OVC,,0.00,WeatherDisplay:10.37,2013-04-16 11:28:00,
2013-04-16 07:33:00,61.3,59.6,30.17,ESE,112,0.0,0.0,94,0.00,OVC,,0.00,WeatherDisplay:10.37,2013-04-16 11:33:00,
2013-04-16 07:38:00,61.4,59.7,30.17,ESE,118,0.0,0.0,94,0.00,OVC,,0.00,WeatherDisplay:10.37,2013-04-16 11:38:00,
2013-04-16 07:43:00,61.4,59.7,30.17,SSE,147,0.0,0.0,94,0.00,OVC,,0.00,WeatherDisplay:10.37,2013-04-16 11:43:00,
2013-04-16 07:48:00,61.4,59.7,30.17,East,80,1.2,1.2,94,0.00,OVC,,0.00,WeatherDisplay:10.37,2013-04-16 11:48:00,
2013-04-16 07:53:00,61.5,59.8,30.17,East,79,0.0,0.0,94,0.00,OVC,,0.00,WeatherDisplay:10.37,2013-04-16 11:53:00,
2013-04-16 07:58:00,61.6,59.9,30.18,SE,134,0.0,0.0,94,0.00,OVC,,0.00,WeatherDisplay:10.37,2013-04-16 11:58:00,
2013-04-16 08:03:00,61.7,60.0,30.18,SE,134,0.0,0.0,94,0.00,OVC,,0.00,WeatherDisplay:10.37,2013-04-16 12:03:00,
2013-04-16 08:08:00,61.8,60.1,30.18,SE,134,0.0,0.0,94,0.00,OVC,,0.00,WeatherDisplay:10.37,2013-04-16 12:08:00,
2013-04-16 08:13:00,61.8,60.1,30.18,SE,134,0.0,0.0,94,0.00,OVC,,0.00,WeatherDisplay:10.37,2013-04-16 12:13:00,
2013-04-16 08:18:00,62.0,60.3,30.18,SE,134,0.0,0.0,94,0.00,OVC,,0.00,WeatherDisplay:10.37,2013-04-16 12:18:00,
2013-04-16 08:23:00,62.1,60.4,30.18,SE,143,0.0,0.0,94,0.00,OVC,,0.00,WeatherDisplay:10.37,2013-04-16 12:23:00,
2013-04-16 08:28:00,62.2,60.2,30.18,ENE,77,2.3,2.3,93,0.00,OVC,,0.00,WeatherDisplay:10.37,2013-04-16 12:28:00,
2013-04-16 08:33:00,62.4,60.3,30.18,ENE,77,0.0,0.0,93,0.00,OVC,,0.00,WeatherDisplay:10.37,2013-04-16 12:33:00,
2013-04-16 08:38:00,62.5,60.4,30.18,SE,144,0.0,0.0,93,0.00,OVC,,0.00,WeatherDisplay:10.37,2013-04-16 12:38:00,
2013-04-16 08:43:00,62.5,60.4,30.18,SE,141,1.2,1.2,93,0.00,OVC,,0.00,WeatherDisplay:10.37,2013-04-16 12:43:00,
2013-04-16 08:48:00,62.7,60.6,30.19,SE,141,0.0,0.0,93,0.00,OVC,,0.00,WeatherDisplay:10.37,2013-04-16 12:48:00,
2013-04-16 08:53:00,62.8,60.7,30.19,NNW,346,0.0,0.0,93,0.00,OVC,,0.00,WeatherDisplay:10.37,2013-04-16 12:53:00,
2013-04-16 08:58:00,62.9,60.8,30.19,NNW,346,0.0,0.0,93,0.00,OVC,,0.00,WeatherDisplay:10.37,2013-04-16 12:58:00,
2013-04-16 09:03:00,63.0,60.6,30.19,NNW,346,1.2,0.0,92,0.00,OVC,,0.00,WeatherDisplay:10.37,2013-04-16 13:03:00,
2013-04-16 09:08:00,63.1,60.7,30.19,SE,142,0.0,0.0,92,0.00,OVC,,0.00,WeatherDisplay:10.37,2013-04-16 13:08:00,
2013-04-16 09:13:00,63.2,60.8,30.19,SE,142,0.0,0.0,92,0.00,OVC,,0.00,WeatherDisplay:10.37,2013-04-16 13:13:00,
2013-04-16 09:18:00,63.3,60.9,30.20,SE,142,2.0,2.0,92,0.00,OVC,,0.00,WeatherDisplay:10.37,2013-04-16 13:18:00,
2013-04-16 09:23:00,63.4,60.7,30.20,SE,142,0.0,0.0,91,0.00,OVC,,0.00,WeatherDisplay:10.37,2013-04-16 13:23:00,
2013-04-16 09:28:00,63.6,60.9,30.20,SE,134,1.2,1.2,91,0.00,OVC,,0.00,WeatherDisplay:10.37,2013-04-16 13:28:00,
2013-04-16 09:33:00,63.8,61.1,30.20,ESE,103,0.0,0.0,91,0.00,OVC,,0.00,WeatherDisplay:10.37,2013-04-16 13:33:00,
2013-04-16 09:38:00,64.0,61.0,30.20,SE,136,2.3,2.3,90,0.00,OVC,,0.00,WeatherDisplay:10.37,2013-04-16 13:38:00,
2013-04-16 09:43:00,64.3,61.3,30.20,ESE,121,2.3,2.3,90,0.00,OVC,,0.00,WeatherDisplay:10.37,2013-04-16 13:43:00,
2013-04-16 09:48:00,64.5,61.2,30.20,ENE,66,2.3,2.3,89,0.00,OVC,,0.00,WeatherDisplay:10.37,2013-04-16 13:48:00,
2013-04-16 09:53:00,64.8,61.2,30.20,NE,49,3.5,3.5,88,0.00,OVC,,0.00,WeatherDisplay:10.37,2013-04-16 13:53:00,
2013-04-16 09:58:00,65.1,61.1,30.20,ENE,77,1.2,1.2,87,0.00,OVC,,0.00,WeatherDisplay:10.37,2013-04-16 13:58:00,
2013-04-16 10:03:00,65.5,61.9,30.20,SSE,156,1.2,1.2,88,0.00,OVC,,0.00,WeatherDisplay:10.37,2013-04-16 14:03:00,
2013-04-16 10:08:00,66.0,61.7,30.20,SE,138,3.5,3.5,86,0.00,OVC,,0.00,WeatherDisplay:10.37,2013-04-16 14:08:00,
2013-04-16 10:13:00,66.3,61.7,30.20,SSE,149,1.2,1.2,85,0.00,BKN,,0.00,WeatherDisplay:10.37,2013-04-16 14:13:00,
2013-04-16 10:18:00,66.4,61.4,30.20,ENE,59,3.5,3.5,84,0.00,BKN,,0.00,WeatherDisplay:10.37,2013-04-16 14:18:00,
2013-04-16 10:23:00,66.6,61.6,30.20,SSE,147,2.3,2.3,84,0.00,BKN,,0.00,WeatherDisplay:10.37,2013-04-16 14:23:00,
2013-04-16 10:28:00,66.7,61.4,30.20,NE,55,2.3,2.3,83,0.00,BKN,,0.00,WeatherDisplay:10.37,2013-04-16 14:28:00,
2013-04-16 10:33:00,66.9,61.6,30.20,ENE,74,1.2,1.2,83,0.00,OVC,,0.00,WeatherDisplay:10.37,2013-04-16 14:33:00,
2013-04-16 10:38:00,67.2,61.9,30.21,ESE,109,3.5,3.5,83,0.00,OVC,,0.00,WeatherDisplay:10.37,2013-04-16 14:38:00,
2013-04-16 10:43:00,67.4,61.4,30.21,South,173,3.5,3.5,81,0.00,OVC,,0.00,WeatherDisplay:10.37,2013-04-16 14:43:00,
2013-04-16 10:48:00,67.6,61.6,30.21,SE,136,3.5,3.5,81,0.00,OVC,,0.00,WeatherDisplay:10.37,2013-04-16 14:48:00,
2013-04-16 10:53:00,67.8,61.8,30.21,East,100,2.3,2.3,81,0.00,BKN,,0.00,WeatherDisplay:10.37,2013-04-16 14:53:00,
2013-04-16 10:58:00,68.1,61.7,30.21,ENE,58,3.5,3.5,80,0.00,BKN,,0.00,WeatherDisplay:10.37,2013-04-16 14:58:00,
2013-04-16 11:03:00,68.3,61.9,30.21,East,96,3.5,3.5,80,0.00,BKN,,0.00,WeatherDisplay:10.37,2013-04-16 15:03:00,
2013-04-16 11:08:00,68.5,61.7,30.21,ESE,119,3.5,3.5,79,0.00,BKN,,0.00,WeatherDisplay:10.37,2013-04-16 15:08:00,
2013-04-16 11:13:00,68.8,62.4,30.21,ENE,67,3.5,3.5,80,0.00,BKN,,0.00,WeatherDisplay:10.37,2013-04-16 15:13:00,
2013-04-16 11:18:00,69.0,61.5,30.21,ENE,76,3.0,3.0,77,0.00,BKN,,0.00,WeatherDisplay:10.37,2013-04-16 15:18:00,
2013-04-16 11:23:00,69.1,61.9,30.21,SSE,161,3.5,3.5,78,0.00,BKN,,0.00,WeatherDisplay:10.37,2013-04-16 15:23:00,
2013-04-16 11:28:00,69.4,61.9,30.21,East,94,3.5,3.5,77,0.00,BKN,,0.00,WeatherDisplay:10.37,2013-04-16 15:28:00,
2013-04-16 11:33:00,69.5,61.6,30.21,ESE,104,1.2,1.2,76,0.00,BKN,,0.00,WeatherDisplay:10.37,2013-04-16 15:33:00,
2013-04-16 11:38:00,69.8,62.3,30.21,NE,45,2.3,2.3,77,0.00,BKN,,0.00,WeatherDisplay:10.37,2013-04-16 15:38:00,
2013-04-16 11:43:00,70.2,61.9,30.21,ENE,64,4.6,4.6,75,0.00,BKN,,0.00,WeatherDisplay:10.37,2013-04-16 15:43:00,
2013-04-16 11:48:00,70.4,62.1,30.21,SE,144,2.3,2.3,75,0.00,BKN,,0.00,WeatherDisplay:10.37,2013-04-16 15:48:00,
2013-04-16 11:53:00,70.5,61.4,30.21,East,100,2.3,2.3,73,0.00,BKN,,0.00,WeatherDisplay:10.37,2013-04-16 15:53:00,
2013-04-16 11:58:00,70.8,62.1,30.21,East,92,3.5,3.5,74,0.00,BKN,,0.00,WeatherDisplay:10.37,2013-04-16 15:58:00,
2013-04-16 12:03:00,71.0,61.9,30.20,ENE,72,4.6,4.6,73,0.00,BKN,,0.00,WeatherDisplay:10.37,2013-04-16 16:03:00,
2013-04-16 12:08:00,71.2,62.5,30.20,SSE,162,2.0,2.0,74,0.00,BKN,,0.00,WeatherDisplay:10.37,2013-04-16 16:08:00,
2013-04-16 12:13:00,71.5,62.0,30.20,South,169,3.5,3.5,72,0.00,BKN,,0.00,WeatherDisplay:10.37,2013-04-16 16:13:00,
2013-04-16 12:18:00,72.1,62.6,30.20,NE,38,2.3,2.3,72,0.00,BKN,,0.00,WeatherDisplay:10.37,2013-04-16 16:18:00,
2013-04-16 12:23:00,72.4,62.1,30.20,NE,36,2.3,2.3,70,0.00,BKN,,0.00,WeatherDisplay:10.37,2013-04-16 16:23:00,
2013-04-16 12:28:00,72.7,61.9,30.20,SE,132,1.2,1.2,69,0.00,BKN,,0.00,WeatherDisplay:10.37,2013-04-16 16:28:00,
2013-04-16 12:33:00,73.2,62.4,30.19,South,188,3.5,3.5,69,0.00,BKN,,0.00,WeatherDisplay:10.37,2013-04-16 16:33:00,
2013-04-16 12:38:00,73.7,62.9,30.19,NNE,32,1.2,1.2,69,0.00,BKN,,0.00,WeatherDisplay:10.37,2013-04-16 16:38:00,
2013-04-16 12:43:00,74.4,62.7,30.19,SE,144,3.5,3.5,67,0.00,BKN,,0.00,WeatherDisplay:10.37,2013-04-16 16:43:00,
2013-04-16 12:48:00,74.9,62.8,30.19,SSE,163,2.3,2.3,66,0.00,BKN,,0.00,WeatherDisplay:10.37,2013-04-16 16:48:00,
2013-04-16 12:53:00,75.2,61.7,30.19,West,266,3.5,3.5,63,0.00,BKN,,0.00,WeatherDisplay:10.37,2013-04-16 16:53:00,
2013-04-16 12:58:00,75.7,62.7,30.19,ESE,115,3.5,3.5,64,0.00,BKN,,0.00,WeatherDisplay:10.37,2013-04-16 16:58:00,
2013-04-16 13:03:00,75.7,62.7,30.18,SSW,195,1.2,1.2,64,0.00,BKN,,0.00,WeatherDisplay:10.37,2013-04-16 17:03:00,
2013-04-16 13:08:00,75.7,62.2,30.18,SE,130,2.3,2.3,63,0.00,BKN,,0.00,WeatherDisplay:10.37,2013-04-16 17:08:00,
2013-04-16 13:13:00,75.7,62.2,30.18,NE,39,3.5,3.5,63,0.00,BKN,,0.00,WeatherDisplay:10.37,2013-04-16 17:13:00,
2013-04-16 13:18:00,75.7,63.1,30.18,East,84,2.3,2.3,65,0.00,BKN,,0.00,WeatherDisplay:10.37,2013-04-16 17:18:00,
2013-04-16 13:23:00,76.1,62.6,30.18,ESE,119,3.5,3.5,63,0.00,BKN,,0.00,WeatherDisplay:10.37,2013-04-16 17:23:00,
2013-04-16 13:28:00,76.5,62.5,30.18,SE,138,3.5,3.5,62,0.00,BKN,,0.00,WeatherDisplay:10.37,2013-04-16 17:28:00,
2013-04-16 13:33:00,76.9,62.0,30.18,WSW,244,2.0,2.0,60,0.00,BKN,,0.00,WeatherDisplay:10.37,2013-04-16 17:33:00,
2013-04-16 13:38:00,77.1,62.1,30.17,SW,236,2.3,2.3,60,0.00,BKN,,0.00,WeatherDisplay:10.37,2013-04-16 17:38:00,
2013-04-16 13:43:00,77.6,62.6,30.17,NE,46,2.3,2.3,60,0.00,BKN,,0.00,WeatherDisplay:10.37,2013-04-16 17:43:00,
2013-04-16 13:48:00,77.6,63.1,30.17,SSE,148,2.3,2.3,61,0.00,BKN,,0.00,WeatherDisplay:10.37,2013-04-16 17:48:00,
2013-04-16 13:53:00,77.6,62.1,30.17,NE,54,3.5,3.5,59,0.00,BKN,,0.00,WeatherDisplay:10.37,2013-04-16 17:53:00,
2013-04-16 13:58:00,77.5,62.5,30.17,East,100,2.3,2.3,60,0.00,BKN,,0.00,WeatherDisplay:10.37,2013-04-16 17:58:00,
2013-04-16 14:03:00,77.5,62.5,30.17,SSE,162,4.0,4.0,60,0.00,BKN,,0.00,WeatherDisplay:10.37,2013-04-16 18:03:00,
2013-04-16 14:08:00,77.8,62.8,30.16,ENE,78,2.3,2.3,60,0.00,BKN,,0.00,WeatherDisplay:10.37,2013-04-16 18:08:00,
2013-04-16 14:13:00,77.8,63.7,30.16,SE,126,0.0,0.0,62,0.00,BKN,,0.00,WeatherDisplay:10.37,2013-04-16 18:13:00,
2013-04-16 14:18:00,78.1,63.6,30.16,East,82,2.3,2.3,61,0.00,BKN,,0.00,WeatherDisplay:10.37,2013-04-16 18:18:00,
2013-04-16 14:23:00,78.2,62.7,30.16,NE,38,2.3,2.3,59,0.00,BKN,,0.00,WeatherDisplay:10.37,2013-04-16 18:23:00,
2013-04-16 14:28:00,78.0,62.5,30.16,ESE,112,3.5,3.5,59,0.00,BKN,,0.00,WeatherDisplay:10.37,2013-04-16 18:28:00,
2013-04-16 14:33:00,77.9,62.4,30.16,SSE,157,3.5,3.5,59,0.00,BKN,,0.00,WeatherDisplay:10.37,2013-04-16 18:33:00,
2013-04-16 14:38:00,78.4,63.4,30.15,ESE,116,2.3,2.3,60,0.00,BKN,,0.00,WeatherDisplay:10.37,2013-04-16 18:38:00,
2013-04-16 14:43:00,79.0,62.5,30.15,SW,232,5.8,5.8,57,0.00,BKN,,0.00,WeatherDisplay:10.37,2013-04-16 18:43:00,
2013-04-16 14:48:00,79.4,62.8,30.15,ESE,119,2.3,2.3,57,0.00,BKN,,0.00,WeatherDisplay:10.37,2013-04-16 18:48:00,
2013-04-16 14:53:00,79.1,62.1,30.15,ENE,69,0.0,0.0,56,0.00,BKN,,0.00,WeatherDisplay:10.37,2013-04-16 18:53:00,
2013-04-16 14:58:00,78.7,61.7,30.15,NE,56,2.3,2.3,56,0.00,BKN,,0.00,WeatherDisplay:10.37,2013-04-16 18:58:00,
2013-04-16 15:03:00,78.1,62.1,30.15,ESE,111,2.3,2.3,58,0.00,BKN,,0.00,WeatherDisplay:10.37,2013-04-16 19:03:00,
2013-04-16 15:08:00,77.8,61.8,30.15,ENE,74,2.3,2.3,58,0.00,BKN,,0.00,WeatherDisplay:10.37,2013-04-16 19:08:00,
2013-04-16 15:13:00,77.8,62.3,30.15,SE,140,1.2,1.2,59,0.00,BKN,,0.00,WeatherDisplay:10.37,2013-04-16 19:13:00,
2013-04-16 15:18:00,78.3,63.3,30.14,ENE,60,3.5,3.5,60,0.00,BKN,,0.00,WeatherDisplay:10.37,2013-04-16 19:18:00,
2013-04-16 15:23:00,78.6,62.6,30.14,SSE,164,3.5,3.5,58,0.00,BKN,,0.00,WeatherDisplay:10.37,2013-04-16 19:23:00,
2013-04-16 15:28:00,78.5,62.0,30.14,SE,140,2.3,2.3,57,0.00,BKN,,0.00,WeatherDisplay:10.37,2013-04-16 19:28:00,
2013-04-16 15:33:00,78.5,62.0,30.14,SSE,149,2.3,2.3,57,0.00,BKN,,0.00,WeatherDisplay:10.37,2013-04-16 19:33:00,
2013-04-16 15:38:00,78.3,61.8,30.14,East,86,1.2,1.2,57,0.00,BKN,,0.00,WeatherDisplay:10.37,2013-04-16 19:38:00,
2013-04-16 15:43:00,78.4,62.4,30.14,East,86,1.2,1.2,58,0.00,BKN,,0.00,WeatherDisplay:10.37,2013-04-16 19:43:00,
2013-04-16 15:48:00,78.4,61.9,30.14,ESE,110,3.5,3.5,57,0.00,BKN,,0.00,WeatherDisplay:10.37,2013-04-16 19:48:00,
2013-04-16 15:53:00,78.1,61.6,30.13,South,169,2.3,2.3,57,0.00,BKN,,0.00,WeatherDisplay:10.37,2013-04-16 19:53:00,
2013-04-16 15:58:00,78.0,62.5,30.13,SSE,159,2.3,2.3,59,0.00,BKN,,0.00,WeatherDisplay:10.37,2013-04-16 19:58:00,
2013-04-16 16:03:00,77.8,62.3,30.13,SSE,160,3.5,3.5,59,0.00,BKN,,0.00,WeatherDisplay:10.37,2013-04-16 20:03:00,
2013-04-16 16:08:00,77.8,61.8,30.13,SSE,150,1.0,1.0,58,0.00,BKN,,0.00,WeatherDisplay:10.37,2013-04-16 20:08:00,
2013-04-16 16:13:00,77.8,62.3,30.12,NE,54,2.3,2.3,59,0.00,BKN,,0.00,WeatherDisplay:10.37,2013-04-16 20:13:00,
2013-04-16 16:18:00,77.8,62.3,30.12,ENE,61,2.3,2.3,59,0.00,BKN,,0.00,WeatherDisplay:10.37,2013-04-16 20:18:00,
2013-04-16 16:23:00,77.7,62.2,30.12,ENE,62,3.0,3.0,59,0.00,BKN,,0.00,WeatherDisplay:10.37,2013-04-16 20:23:00,
2013-04-16 16:28:00,77.9,61.9,30.12,ENE,74,2.3,2.3,58,0.00,BKN,,0.00,WeatherDisplay:10.37,2013-04-16 20:28:00,
2013-04-16 16:33:00,78.1,62.1,30.12,ENE,63,2.3,2.3,58,0.00,BKN,,0.00,WeatherDisplay:10.37,2013-04-16 20:33:00,
2013-04-16 16:38:00,78.3,62.3,30.11,NNE,32,1.0,0.0,58,0.00,BKN,,0.00,WeatherDisplay:10.37,2013-04-16 20:38:00,
2013-04-16 16:43:00,78.5,63.0,30.11,SE,135,0.0,0.0,59,0.00,BKN,,0.00,WeatherDisplay:10.37,2013-04-16 20:43:00,
2013-04-16 16:48:00,78.6,62.6,30.11,NNE,13,3.5,3.5,58,0.00,BKN,,0.00,WeatherDisplay:10.37,2013-04-16 20:48:00,
2013-04-16 16:53:00,78.9,62.4,30.11,East,84,3.5,3.5,57,0.00,BKN,,0.00,WeatherDisplay:10.37,2013-04-16 20:53:00,
2013-04-16 16:58:00,79.2,62.7,30.11,NE,49,4.6,4.6,57,0.00,BKN,,0.00,WeatherDisplay:10.37,2013-04-16 20:58:00,
2013-04-16 17:03:00,79.3,63.2,30.11,NE,51,2.3,2.3,58,0.00,BKN,,0.00,WeatherDisplay:10.37,2013-04-16 21:03:00,
2013-04-16 17:08:00,79.1,62.6,30.11,ENE,76,1.2,1.2,57,0.00,BKN,,0.00,WeatherDisplay:10.37,2013-04-16 21:08:00,
2013-04-16 17:13:00,78.7,62.2,30.11,ENE,76,1.2,0.0,57,0.00,BKN,,0.00,WeatherDisplay:10.37,2013-04-16 21:13:00,
2013-04-16 17:18:00,78.4,62.4,30.11,ENE,58,1.2,1.2,58,0.00,BKN,,0.00,WeatherDisplay:10.37,2013-04-16 21:18:00,
2013-04-16 17:23:00,78.2,62.2,30.11,ENE,58,0.0,0.0,58,0.00,BKN,,0.00,WeatherDisplay:10.37,2013-04-16 21:23:00,
2013-04-16 17:28:00,78.1,62.1,30.11,East,85,1.2,1.2,58,0.00,BKN,,0.00,WeatherDisplay:10.37,2013-04-16 21:28:00,
2013-04-16 17:33:00,78.1,62.1,30.11,SE,146,2.3,2.3,58,0.00,BKN,,0.00,WeatherDisplay:10.37,2013-04-16 21:33:00,
2013-04-16 17:38:00,78.0,63.0,30.11,SE,146,1.2,1.2,60,0.00,BKN,,0.00,WeatherDisplay:10.37,2013-04-16 21:38:00,
2013-04-16 17:43:00,78.0,62.5,30.11,SE,146,0.0,0.0,59,0.00,BKN,,0.00,WeatherDisplay:10.37,2013-04-16 21:43:00,
2013-04-16 17:48:00,78.1,62.6,30.12,SSE,147,0.0,0.0,59,0.00,BKN,,0.00,WeatherDisplay:10.37,2013-04-16 21:48:00,
2013-04-16 17:53:00,78.1,63.1,30.11,SE,146,0.0,0.0,60,0.00,BKN,,0.00,WeatherDisplay:10.37,2013-04-16 21:53:00,
2013-04-16 17:58:00,78.2,62.7,30.11,SE,146,1.2,0.0,59,0.00,BKN,,0.00,WeatherDisplay:10.37,2013-04-16 21:58:00,
2013-04-16 18:03:00,78.3,62.8,30.11,SSE,150,0.0,0.0,59,0.00,BKN,,0.00,WeatherDisplay:10.37,2013-04-16 22:03:00,
2013-04-16 18:08:00,78.4,63.4,30.11,ESE,108,2.3,2.3,60,0.00,BKN,,0.00,WeatherDisplay:10.37,2013-04-16 22:08:00,
2013-04-16 18:13:00,78.5,62.0,30.12,SE,141,3.5,3.5,57,0.00,BKN,,0.00,WeatherDisplay:10.37,2013-04-16 22:13:00,
2013-04-16 18:18:00,78.4,62.9,30.12,SW,227,2.3,2.3,59,0.00,BKN,,0.00,WeatherDisplay:10.37,2013-04-16 22:18:00,
2013-04-16 18:23:00,78.3,62.3,30.12,SE,138,1.2,1.2,58,0.00,BKN,,0.00,WeatherDisplay:10.37,2013-04-16 22:23:00,
2013-04-16 18:28:00,78.2,62.2,30.12,SE,138,0.0,0.0,58,0.00,BKN,,0.00,WeatherDisplay:10.37,2013-04-16 22:28:00,
2013-04-16 18:33:00,78.1,62.1,30.12,SE,138,0.0,0.0,58,0.00,BKN,,0.00,WeatherDisplay:10.37,2013-04-16 22:33:00,
2013-04-16 18:38:00,78.0,62.0,30.12,South,171,2.3,2.3,58,0.00,BKN,,0.00,WeatherDisplay:10.37,2013-04-16 22:38:00,
2013-04-16 18:43:00,77.9,62.9,30.11,South,171,0.0,0.0,60,0.00,BKN,,0.00,WeatherDisplay:10.37,2013-04-16 22:43:00,
2013-04-16 18:48:00,77.8,62.3,30.11,SSE,159,3.5,3.5,59,0.00,BKN,,0.00,WeatherDisplay:10.37,2013-04-16 22:48:00,
2013-04-16 18:53:00,77.8,61.8,30.11,SE,130,3.5,3.5,58,0.00,BKN,,0.00,WeatherDisplay:10.37,2013-04-16 22:53:00,
2013-04-16 18:58:00,77.7,62.2,30.11,SE,130,0.0,0.0,59,0.00,BKN,,0.00,WeatherDisplay:10.37,2013-04-16 22:58:00,
2013-04-16 19:03:00,77.6,62.1,30.11,SSE,150,1.2,0.0,59,0.00,BKN,,0.00,WeatherDisplay:10.37,2013-04-16 23:03:00,
2013-04-16 19:08:00,77.5,62.0,30.12,SE,142,2.0,2.0,59,0.00,BKN,,0.00,WeatherDisplay:10.37,2013-04-16 23:08:00,
2013-04-16 19:13:00,77.4,61.9,30.12,SSE,150,1.2,1.2,59,0.00,BKN,,0.00,WeatherDisplay:10.37,2013-04-16 23:13:00,
2013-04-16 19:18:00,77.3,61.9,30.12,ESE,105,0.0,0.0,59,0.00,BKN,,0.00,WeatherDisplay:10.37,2013-04-16 23:18:00,
2013-04-16 19:23:00,77.1,62.1,30.12,ESE,121,1.2,1.2,60,0.00,BKN,,0.00,WeatherDisplay:10.37,2013-04-16 23:23:00,
2013-04-16 19:28:00,76.9,61.5,30.12,SE,132,2.3,2.3,59,0.00,BKN,,0.00,WeatherDisplay:10.37,2013-04-16 23:28:00,
2013-04-16 19:33:00,76.8,61.4,30.12,SE,136,0.0,0.0,59,0.00,BKN,,0.00,WeatherDisplay:10.37,2013-04-16 23:33:00,
2013-04-16 19:38:00,76.7,61.8,30.12,SE,136,0.0,0.0,60,0.00,BKN,,0.00,WeatherDisplay:10.37,2013-04-16 23:38:00,
2013-04-16 19:43:00,76.5,62.0,30.12,SE,136,0.0,0.0,61,0.00,BKN,,0.00,WeatherDisplay:10.37,2013-04-16 23:43:00,
2013-04-16 19:48:00,76.3,61.9,30.12,SE,136,0.0,0.0,61,0.00,BKN,,0.00,WeatherDisplay:10.37,2013-04-16 23:48:00,
2013-04-16 19:53:00,76.1,62.1,30.12,SE,136,0.0,0.0,62,0.00,BKN,,0.00,WeatherDisplay:10.37,2013-04-16 23:53:00,
2013-04-16 19:58:00,76.0,62.0,30.12,SE,136,0.0,0.0,62,0.00,BKN,,0.00,WeatherDisplay:10.37,2013-04-16 23:58:00,
2013-04-16 20:03:00,75.8,61.8,30.12,SE,136,0.0,0.0,62,0.00,BKN,,0.00,WeatherDisplay:10.37,2013-04-17 00:03:00,
2013-04-16 20:08:00,75.7,62.2,30.12,SE,136,0.0,0.0,63,0.00,BKN,,0.00,WeatherDisplay:10.37,2013-04-17 00:08:00,
2013-04-16 20:13:00,75.5,62.0,30.12,SE,136,0.0,0.0,63,0.00,BKN,,0.00,WeatherDisplay:10.37,2013-04-17 00:13:00,
2013-04-16 20:18:00,75.3,62.3,30.12,SE,136,0.0,0.0,64,0.00,BKN,,0.00,WeatherDisplay:10.37,2013-04-17 00:18:00,
2013-04-16 20:23:00,75.0,62.0,30.12,SE,136,0.0,0.0,64,0.00,BKN,,0.00,WeatherDisplay:10.37,2013-04-17 00:23:00,
2013-04-16 20:28:00,74.8,61.8,30.12,SE,136,0.0,0.0,64,0.00,BKN,,0.00,WeatherDisplay:10.37,2013-04-17 00:28:00,
2013-04-16 20:33:00,74.6,62.1,30.12,SE,136,0.0,0.0,65,0.00,BKN,,0.00,WeatherDisplay:10.37,2013-04-17 00:33:00,
2013-04-16 20:38:00,74.4,62.3,30.12,SE,136,0.0,0.0,66,0.00,BKN,,0.00,WeatherDisplay:10.37,2013-04-17 00:38:00,
2013-04-16 20:43:00,74.0,62.3,30.12,SE,136,0.0,0.0,67,0.00,BKN,,0.00,WeatherDisplay:10.37,2013-04-17 00:43:00,
2013-04-16 20:48:00,73.7,62.1,30.13,SE,136,0.0,0.0,67,0.00,BKN,,0.00,WeatherDisplay:10.37,2013-04-17 00:48:00,
2013-04-16 20:53:00,73.4,62.2,30.13,SE,136,0.0,0.0,68,0.00,BKN,,0.00,WeatherDisplay:10.37,2013-04-17 00:53:00,
2013-04-16 20:58:00,73.0,62.2,30.13,SE,136,0.0,0.0,69,0.00,BKN,,0.00,WeatherDisplay:10.37,2013-04-17 00:58:00,
2013-04-16 21:03:00,72.8,62.0,30.13,SE,136,0.0,0.0,69,0.00,BKN,,0.00,WeatherDisplay:10.37,2013-04-17 01:03:00,
2013-04-16 21:08:00,72.6,62.3,30.13,SE,136,0.0,0.0,70,0.00,BKN,,0.00,WeatherDisplay:10.37,2013-04-17 01:08:00,
2013-04-16 21:13:00,72.4,62.1,30.13,SE,136,0.0,0.0,70,0.00,SCT,,0.00,WeatherDisplay:10.37,2013-04-17 01:13:00,
2013-04-16 21:18:00,72.2,62.3,30.13,SE,136,0.0,0.0,71,0.00,SCT,,0.00,WeatherDisplay:10.37,2013-04-17 01:18:00,
2013-04-16 21:23:00,72.0,62.5,30.13,SE,136,0.0,0.0,72,0.00,SCT,,0.00,WeatherDisplay:10.37,2013-04-17 01:23:00,
2013-04-16 21:28:00,71.7,62.2,30.14,SE,136,0.0,0.0,72,0.00,SCT,,0.00,WeatherDisplay:10.37,2013-04-17 01:28:00,
2013-04-16 21:33:00,71.5,62.4,30.13,SE,136,0.0,0.0,73,0.00,SCT,,0.00,WeatherDisplay:10.37,2013-04-17 01:33:00,
2013-04-16 21:38:00,71.3,62.2,30.14,SE,136,0.0,0.0,73,0.00,SCT,,0.00,WeatherDisplay:10.37,2013-04-17 01:38:00,
2013-04-16 21:43:00,71.1,62.4,30.13,SE,136,0.0,0.0,74,0.00,SCT,,0.00,WeatherDisplay:10.37,2013-04-17 01:43:00,
2013-04-16 21:48:00,70.8,62.1,30.14,SE,136,0.0,0.0,74,0.00,SCT,,0.00,WeatherDisplay:10.37,2013-04-17 01:48:00,
2013-04-16 21:53:00,70.6,61.9,30.14,SE,136,0.0,0.0,74,0.00,SCT,,0.00,WeatherDisplay:10.37,2013-04-17 01:53:00,
2013-04-16 21:58:00,70.5,62.2,30.14,SE,136,0.0,0.0,75,0.00,SCT,,0.00,WeatherDisplay:10.37,2013-04-17 01:58:00,
2013-04-16 22:03:00,70.3,62.0,30.14,SE,136,0.0,0.0,75,0.00,SCT,,0.00,WeatherDisplay:10.37,2013-04-17 02:03:00,
2013-04-16 22:08:00,70.0,62.1,30.14,SE,136,0.0,0.0,76,0.00,SCT,,0.00,WeatherDisplay:10.37,2013-04-17 02:08:00,
2013-04-16 22:13:00,69.7,62.2,30.14,SE,136,0.0,0.0,77,0.00,SCT,,0.00,WeatherDisplay:10.37,2013-04-17 02:13:00,
2013-04-16 22:18:00,69.5,62.3,30.15,SE,136,0.0,0.0,78,0.00,SCT,,0.00,WeatherDisplay:10.37,2013-04-17 02:18:00,
2013-04-16 22:23:00,69.2,62.0,30.15,SE,136,0.0,0.0,78,0.00,SCT,,0.00,WeatherDisplay:10.37,2013-04-17 02:23:00,
2013-04-16 22:28:00,69.0,62.2,30.14,SE,136,0.0,0.0,79,0.00,SCT,,0.00,WeatherDisplay:10.37,2013-04-17 02:28:00,
2013-04-16 22:33:00,68.8,62.0,30.15,SE,136,0.0,0.0,79,0.00,SCT,,0.00,WeatherDisplay:10.37,2013-04-17 02:33:00,
2013-04-16 22:38:00,68.5,62.1,30.15,SE,136,0.0,0.0,80,0.00,SCT,,0.00,WeatherDisplay:10.37,2013-04-17 02:38:00,
2013-04-16 22:43:00,68.3,62.2,30.15,SE,136,0.0,0.0,81,0.00,SCT,,0.00,WeatherDisplay:10.37,2013-04-17 02:43:00,
2013-04-16 22:48:00,68.0,61.9,30.15,SE,136,0.0,0.0,81,0.00,SCT,,0.00,WeatherDisplay:10.37,2013-04-17 02:48:00,
2013-04-16 22:53:00,67.7,62.0,30.15,SE,136,0.0,0.0,82,0.00,SCT,,0.00,WeatherDisplay:10.37,2013-04-17 02:53:00,
2013-04-16 22:58:00,67.5,61.8,30.15,SE,136,0.0,0.0,82,0.00,SCT,,0.00,WeatherDisplay:10.37,2013-04-17 02:58:00,
2013-04-16 23:03:00,67.3,61.6,30.14,SE,136,0.0,0.0,82,0.00,SCT,,0.00,WeatherDisplay:10.37,2013-04-17 03:03:00,
2013-04-16 23:08:00,67.1,61.8,30.14,SE,136,0.0,0.0,83,0.00,SCT,,0.00,WeatherDisplay:10.37,2013-04-17 03:08:00,
2013-04-16 23:13:00,67.0,61.7,30.15,SE,136,0.0,0.0,83,0.00,FEW,,0.00,WeatherDisplay:10.37,2013-04-17 03:13:00,
2013-04-16 23:18:00,66.8,61.5,30.14,SE,136,0.0,0.0,83,0.00,FEW,,0.00,WeatherDisplay:10.37,2013-04-17 03:18:00,
2013-04-16 23:23:00,66.7,61.7,30.14,SE,136,0.0,0.0,84,0.00,FEW,,0.00,WeatherDisplay:10.37,2013-04-17 03:23:00,
2013-04-16 23:28:00,66.5,61.5,30.14,SE,136,0.0,0.0,84,0.00,FEW,,0.00,WeatherDisplay:10.37,2013-04-17 03:28:00,
2013-04-16 23:33:00,66.4,61.4,30.14,SE,136,0.0,0.0,84,0.00,FEW,,0.00,WeatherDisplay:10.37,2013-04-17 03:33:00,
2013-04-16 23:38:00,66.3,61.7,30.14,SE,136,0.0,0.0,85,0.00,FEW,,0.00,WeatherDisplay:10.37,2013-04-17 03:38:00,
2013-04-16 23:43:00,66.2,61.6,30.14,SE,136,0.0,0.0,85,0.00,FEW,,0.00,WeatherDisplay:10.37,2013-04-17 03:43:00,
2013-04-16 23:48:00,66.1,61.5,30.14,SE,136,0.0,0.0,85,0.00,FEW,,0.00,WeatherDisplay:10.37,2013-04-17 03:48:00,
2013-04-16 23:53:00,66.0,61.4,30.14,SE,136,0.0,0.0,85,0.00,FEW,,0.00,WeatherDisplay:10.37,2013-04-17 03:53:00,
2013-04-16 23:58:00,65.9,61.3,30.14,SE,136,0.0,0.0,85,0.00,FEW,,0.00,WeatherDisplay:10.37,2013-04-17 03:58:00,